CAPE
1713 1562 1718 1667 1506 1418 1409 1462 1587 1879 2175 2337 2303 2174 2183 2110 2023 2023 2116 2194 2142 1970 1718 1493 1092 1081 1046 994 1273 1261 1075 777 608 913 826 756 695 586 551 696 542 535 391
1655 1425 1286 1851 1800 1715 1704 1777 1802 1848 1791 1918 2212 2409 2411 2314 2167 2144 2129 2146 2198 2017 1881 1516 934 778 829 846 972 1282 1166 1033 855 892 945 768 1087 867 586 454 342 487 325
1713 1503 1414 1627 1959 1982 1977 2004 1962 1864 1792 1791 1864 2002 2170 2335 2309 2205 2132 2178 2232 2196 2062 1802 1436 1159 1045 814 940 1337 1373 1229 1020 934 1128 1044 1069 514 400 386 304 313 438
1464 1449 1447 1206 1466 1528 1715 1874 1937 1874 1838 1846 1832 1797 1882 2027 2164 2192 2150 2110 2083 2147 2129 2033 1815 1623 1475 1062 908 1187 1371 1196 1012 941 1025 1002 780 649 484 353 353 400 380
1201 974 692 727 1048 1245 1209 1267 1370 1536 1754 1870 1936 1949 1867 1836 1919 2041 2097 2051 2007 1985 1923 2004 1961 1791 1759 1277 1045 1120 1247 1269 1115 992 1137 1114 867 770 613 354 306 347 415
786 748 830 1047 1020 557 443 473 629 770 974 1213 1494 1774 1956 2051 2003 2004 2019 1948 1958 2010 2000 2021 2071 2033 1980 1363 1108 1170 1222 1164 911 1189 1276 941 677 801 627 461 500 526 439
524 649 492 513 573 692 890 758 485 378 408 452 534 739 1036 1414 1704 1975 2158 2206 2004 1938 2040 1977 1892 1854 1817 1275 1111 1030 1052 1004 1163 1321 1317 1105 1197 798 506 367 517 613 518
271 121 204 231 397 474 532 569 617 604 795 653 441 323 339 468 849 1227 1490 1810 2129 1987 2044 1957 1854 1621 1628 1430 1132 895 831 835 1173 1353 1517 1260 1141 1070 642 436 648 536 410
69 37 4 5 10 1 0 0 0 74 391 496 466 407 366 283 193 479 929 1376 1790 1885 1822 1783 1642 1526 1369 1184 1142 839 707 809 1171 1531 1259 1251 1324 1080 727 327 374 554 422
30 0 0 0 0 0 0 0 0 0 0 0 0 19 190 221 110 654 854 935 1350 1323 1552 1669 1536 1382 1284 1058 895 877 753 648 1196 1247 1498 1717 1245 1128 894 694 416 582 424
0 0 0 0 0 0 0 0 0 0 0 0 0 0 0 0 0 0 56 546 554 682 974 1274 1305 1264 1203 1031 963 785 807 1203 1238 1280 900 939 1368 1136 765 1209 764 531 352
0 0 0 0 0 0 0 0 0 0 0 0 0 0 0 0 0 0 0 11 80 623 1019 929 1058 1194 1237 1548 1207 961 1313 1203 1135 1424 1152 904 1463 1319 1062 1291 842 629 384
0 0 0 0 0 0 0 0 0 0 0 0 0 0 0 0 0 0 0 0 0 35 178 1282 1626 1400 1468 1356 1316 1596 1956 1456 1064 955 860 867 1386 1581 1087 1313 1008 719 497
0 0 0 0 0 0 0 0 0 0 0 0 0 0 0 0 0 0 0 0 0 0 0 0 595 1111 1610 1765 1898 1933 1950 1490 1013 930 829 914 940 1434 1200 1262 1245 780 671
0 0 0 0 0 0 0 0 0 0 0 0 0 0 0 0 0 0 0 0 0 0 0 0 0 2 427 1012 1700 1931 1570 1587 1681 1316 1525 685 957 987 1277 1179 1021 1156 846
0 0 0 0 0 0 0 0 0 0 0 0 0 0 0 0 0 0 0 0 0 0 0 0 0 0 0 114 677 1528 1966 1901 1802 1706 1477 1460 790 921 847 1210 1038 1162 1051
0 0 0 0 0 0 0 0 0 0 0 0 0 0 0 0 0 0 0 0 0 0 0 0 0 0 0 0 8 632 1402 1920 1901 1680 1613 1741 913 904 916 583 822 1050 1373
0 0 0 0 0 0 0 0 0 0 0 0 0 0 0 0 0 0 0 0 0 0 0 0 0 0 0 0 0 0 439 1294 1408 1660 1839 1731 1710 1556 970 791 406 712 946
0 0 0 0 0 0 0 0 0 0 0 0 0 0 0 0 0 0 0 0 1 0 0 0 0 0 0 0 0 0 8 285 1288 1847 1758 1838 1530 1767 1601 983 703 445 813
0 0 0 0 0 0 0 0 0 0 0 0 0 0 0 0 0 0 0 2 3 1 0 2 9 7 3 0 0 0 0 5 336 1173 1666 2099 2060 1707 1332 1404 937 710 644
0 0 0 0 0 0 0 0 0 0 0 0 0 0 0 0 0 0 0 1 4 0 0 0 0 0 5 0 1 0 0 24 314 577 1085 1688 1944 2040 1554 1288 1623 1219 664
0 0 0 0 0 0 0 0 0 0 0 0 0 0 0 0 0 0 0 0 0 0 0 0 0 0 0 0 0 0 0 0 24 433 1010 1331 1800 1970 1853 1572 1142 1539 1656
0 0 0 0 0 0 0 0 0 0 0 0 0 0 0 0 0 0 0 0 0 0 0 0 0 0 0 0 0 0 0 0 0 30 422 1254 1637 1644 1794 1730 1397 1407 1751
0 0 0 0 0 0 0 0 0 0 0 0 0 0 0 0 0 0 0 0 0 0 0 0 0 0 0 0 0 0 0 0 0 0 0 236 730 1170 1287 1492 1457 1545 1831
0 0 0 0 0 0 0 0 0 0 0 0 0 0 0 0 0 0 0 0 0 0 0 0 0 0 0 0 0 0 0 0 0 0 16 0 94 576 1000 979 1248 1090 1435
0 0 0 0 0 0 0 0 0 0 0 0 0 0 0 0 0 0 0 0 0 0 0 0 0 0 0 0 0 0 0 0 0 0 9 19 20 443 859 1239 1401 1290 1085
CIN
-19 -38 -35 -44 -54 -48 -48 -48 -42 -21 -8 -9 -14 -19 -15 -15 -15 -15 -4 -0 -0 -0 -0 -1 -8 -9 -14 -15 -5 -5 -17 -39 -60 -25 -27 -24 -19 -33 -25 -4 -9 -1 -15
-0 -39 -80 -6 -14 -22 -21 -12 -14 -13 -22 -16 -1 -0 -0 -1 -3 -3 -2 -1 -0 -0 -0 -2 -15 -26 -30 -30 -25 -12 -17 -22 -34 -30 -17 -24 -2 -5 -9 -19 -17 -4 -9
-3 -19 -36 -16 -1 -1 -0 -0 -2 -11 -23 -20 -12 -3 -0 -0 -0 -0 -0 -0 -0 -0 -0 -0 -4 -11 -19 -39 -31 -11 -10 -12 -29 -29 -11 -3 -0 -39 -34 -19 -14 -12 -5
-27 -19 -25 -36 -9 -10 -7 -4 -2 -3 -7 -13 -15 -18 -13 -3 -0 -0 -0 -0 -0 -0 -0 -0 -0 -0 -3 -26 -42 -23 -15 -25 -33 -33 -8 -6 -8 -45 -22 -16 -9 -8 -10
-35 -59 -88 -89 -38 -15 -15 -16 -15 -7 -0 -0 -0 -2 -9 -13 -5 -1 -0 -1 -1 -0 -0 -0 -0 -0 -1 -16 -26 -25 -21 -21 -29 -25 -2 -17 -2 -24 -30 -8 -9 -6 -4
-67 -75 -59 -27 -13 -24 -89 -87 -85 -66 -39 -24 -14 -2 -0 -0 -0 -0 -1 -4 -3 -2 -0 -0 -0 -1 -1 -9 -20 -16 -17 -31 -51 -0 -0 -15 -2 -29 -28 -7 -5 -7 -6
-106 -71 -94 -71 -44 -16 -1 -0 -14 -85 -117 -121 -103 -77 -48 -19 -4 -0 -0 -0 -2 -5 -2 -2 -2 -3 -3 -12 -13 -19 -28 -39 -8 -0 -0 -5 -14 -35 -30 -21 -8 -4 -1
-152 -185 -146 -136 -89 -59 -33 -18 -15 -8 -0 -1 -22 -91 -131 -104 -51 -23 -26 -11 -0 -2 -3 -6 -6 -8 -11 -14 -17 -43 -46 -43 -2 -0 -1 -8 -51 -29 -26 -17 -6 -3 -1
-211 -218 -44 -45 -183 -29 -0 -0 -30 -14 -52 -24 -32 -46 -65 -94 -206 -142 -74 -39 -13 -5 -4 -7 -13 -13 -21 -40 -37 -62 -72 -47 -5 -2 -0 -1 -47 -38 -22 -21 -10 -5 -3
-216 -0 -0 -0 -0 -0 -0 -0 -0 -0 -0 -0 -0 -240 -123 -105 -160 -26 -73 -56 -8 -15 -17 -16 -26 -25 -23 -48 -80 -62 -67 -83 -0 -0 -1 -3 -47 -25 -18 -6 -7 -3 -4
-0 -0 -0 -0 -0 -0 -0 -0 -0 -0 -0 -0 -0 -0 -0 -0 -0 -0 -107 -59 -124 -109 -62 -37 -45 -41 -22 -34 -48 -90 -84 -3 -4 -3 -3 -2 -61 -29 -26 -0 -3 -6 -14
-0 -0 -0 -0 -0 -0 -0 -0 -0 -0 -0 -0 -0 -0 -0 -0 -0 -0 -0 -161 -295 -108 -18 -92 -104 -58 -36 -0 -4 -29 -28 -1 -3 -10 -9 -111 -71 -26 -15 -0 -7 -7 -22
-0 -0 -0 -0 -0 -0 -0 -0 -0 -0 -0 -0 -0 -0 -0 -0 -0 -0 -0 -0 -0 -26 -204 -1 -3 -11 -5 -1 -0 -6 -9 -4 -5 -1 -6 -52 -94 -32 -10 -1 -5 -7 -19
-0 -0 -0 -0 -0 -0 -0 -0 -0 -0 -0 -0 -0 -0 -0 -0 -0 -0 -0 -0 -0 -0 -0 -0 -67 -37 -34 -40 -10 -7 -2 -0 -6 -1 -5 -32 -19 -61 -20 -0 -0 -9 -8
-0 -0 -0 -0 -0 -0 -0 -0 -0 -0 -0 -0 -0 -0 -0 -0 -0 -0 -0 -0 -0 -0 -0 -0 -0 -34 -122 -12 -24 -14 -22 -19 -8 -1 -0 -15 -22 -80 -43 -3 -1 -0 -0
-0 -0 -0 -0 -0 -0 -0 -0 -0 -0 -0 -0 -0 -0 -0 -0 -0 -0 -0 -0 -0 -0 -0 -0 -0 -0 -0 -273 -78 -9 -0 -0 -0 -6 -0 -1 -66 -18 -76 -26 -6 -1 -0
-0 -0 -0 -0 -0 -0 -0 -0 -0 -0 -0 -0 -0 -0 -0 -0 -0 -0 -0 -0 -0 -0 -0 -0 -0 -0 -0 -0 -33 -113 -3 -0 -0 -0 -5 -0 -17 -61 -20 -26 -30 -5 -0
-0 -0 -0 -0 -0 -0 -0 -0 -0 -0 -0 -0 -0 -0 -0 -0 -0 -0 -0 -0 -0 -0 -0 -0 -0 -0 -0 -0 -0 -0 -213 -9 -1 -4 -0 -0 -0 -1 -49 -28 -48 -40 -5
-0 -0 -0 -0 -0 -0 -0 -0 -0 -0 -0 -0 -0 -0 -0 -0 -0 -0 -0 -0 -0 -0 -0 -0 -0 -0 -0 -0 -0 -0 -607 -326 -21 -0 -0 -1 -2 -2 -2 -34 -15 -97 -29
-0 -0 -0 -0 -0 -0 -0 -0 -0 -0 -0 -0 -0 -0 -0 -0 -0 -0 -0 -0 -0 -0 -0 -0 -0 -0 -0 -0 -0 -0 -0 -410 -277 -17 -0 -0 -0 -3 -16 -32 -16 -10 -63
-0 -0 -0 -0 -0 -0 -0 -0 -0 -0 -0 -0 -0 -0 -0 -0 -0 -0 -0 -0 -0 -0 -0 -0 -0 -0 -0 -0 -0 -0 -0 -355 -261 -157 -2 -0 -0 -0 -11 -23 -9 -16 -20
-0 -0 -0 -0 -0 -0 -0 -0 -0 -0 -0 -0 -0 -0 -0 -0 -0 -0 -0 -0 -0 -0 -0 -0 -0 -0 -0 -0 -0 -0 -0 -0 -289 -133 -0 -0 -0 -0 -0 -13 -20 -0 -0
-0 -0 -0 -0 -0 -0 -0 -0 -0 -0 -0 -0 -0 -0 -0 -0 -0 -0 -0 -0 -0 -0 -0 -0 -0 -0 -0 -0 -0 -0 -0 -0 -0 -208 -63 -1 -0 -0 -0 -2 -7 -1 -0
-0 -0 -0 -0 -0 -0 -0 -0 -0 -0 -0 -0 -0 -0 -0 -0 -0 -0 -0 -0 -0 -0 -0 -0 -0 -0 -0 -0 -0 -0 -0 -0 -0 -0 -0 -86 -17 -2 -0 -0 -2 -0 -0
-0 -0 -0 -0 -0 -0 -0 -0 -0 -0 -0 -0 -0 -0 -0 -0 -0 -0 -0 -0 -0 -0 -0 -0 -0 -0 -0 -0 -0 -0 -0 -0 -0 -0 -0 -0 -95 -22 -11 -9 -3 -7 -7
-0 -0 -0 -0 -0 -0 -0 -0 -0 -0 -0 -0 -0 -0 -0 -0 -0 -0 -0 -0 -0 -0 -0 -0 -0 -0 -0 -0 -0 -0 -0 -0 -0 -0 -0 -0 -141 -44 -2 -0 -0 -2 -9
Wind_Speed
35 34 25 26 25 24 21 17 16 14 17 16 17 18 18 17 17 18 18 18 19 20 22 21 20 20 20 18 16 15 16 15 13 11 10 11 16 16 17 17 15 14 28
34 36 29 28 30 28 27 22 20 19 19 18 15 15 15 16 16 18 19 20 21 22 22 22 22 19 18 17 17 18 18 15 14 12 11 12 19 19 18 16 16 26 30
31 27 33 27 31 30 29 27 25 23 23 21 18 15 14 13 13 15 18 18 19 20 20 21 21 20 19 18 17 17 18 16 14 12 13 12 18 24 21 17 23 27 30
33 33 34 31 33 33 31 31 29 27 25 22 19 18 17 15 13 15 17 17 17 17 17 20 20 19 19 19 18 16 15 17 16 15 15 14 18 31 24 23 25 26 27
36 37 38 36 33 33 31 29 29 28 26 22 17 15 14 14 14 15 16 17 17 18 17 17 19 19 20 20 18 17 15 15 17 18 14 16 23 32 30 27 28 26 25
40 42 42 41 36 31 30 28 26 27 26 23 20 17 14 11 11 13 15 16 17 17 18 18 17 18 20 20 20 18 17 17 16 18 14 25 19 32 32 26 21 27 31
42 46 46 43 40 34 31 28 27 27 27 25 22 19 17 14 14 14 14 14 15 16 17 17 18 19 20 19 19 20 18 17 15 15 17 19 30 36 32 28 31 34 33
43 45 45 45 41 39 35 31 29 28 27 26 25 22 18 17 17 16 15 12 13 14 14 17 17 18 20 20 21 20 20 19 17 15 14 21 35 38 34 30 33 32 33
nan nan nan nan nan nan nan nan nan nan 28 27 26 25 20 17 16 17 17 15 15 14 14 14 15 16 17 19 21 23 22 21 14 13 16 18 36 37 38 32 35 35 33
nan nan nan nan nan nan nan nan nan nan nan nan nan nan 18 13 17 17 15 19 13 11 13 14 16 18 18 19 21 24 25 23 19 14 20 21 33 36 38 36 34 34 27
nan nan nan nan nan nan nan nan nan nan nan nan nan nan nan nan nan nan nan 17 13 12 14 16 18 21 21 21 23 28 31 26 23 24 20 36 35 33 37 33 33 33 31
nan nan nan nan nan nan nan nan nan nan nan nan nan nan nan nan nan nan nan nan nan 14 16 22 25 26 27 24 26 33 29 29 27 31 24 37 37 34 32 33 32 32 32
nan nan nan nan nan nan nan nan nan nan nan nan nan nan nan nan nan nan nan nan nan nan 13 12 17 25 26 25 23 35 35 36 31 31 33 44 39 32 28 30 32 30 31
nan nan nan nan nan nan nan nan nan nan nan nan nan nan nan nan nan nan nan nan nan nan nan nan 15 13 15 15 24 24 23 26 33 32 36 49 45 35 30 28 30 29 30
nan nan nan nan nan nan nan nan nan nan nan nan nan nan nan nan nan nan nan nan nan nan nan nan nan nan 19 19 23 26 30 30 35 36 36 51 47 43 33 28 30 27 32
nan nan nan nan nan nan nan nan nan nan nan nan nan nan nan nan nan nan nan nan nan nan nan nan nan nan nan 25 24 21 22 28 32 35 37 39 49 48 41 31 29 30 32
nan nan nan nan nan nan nan nan nan nan nan nan nan nan nan nan nan nan nan nan nan nan nan nan nan nan nan nan nan 25 25 25 29 31 37 41 44 45 47 41 32 33 33
nan nan nan nan nan nan nan nan nan nan nan nan nan nan nan nan nan nan nan nan nan nan nan nan nan nan nan nan nan nan 32 31 32 30 34 38 40 44 41 43 40 36 35
nan nan nan nan nan nan nan nan nan nan nan nan nan nan nan nan nan nan nan nan nan nan nan nan nan nan nan nan nan nan nan 37 36 36 35 37 40 41 46 44 41 41 39
nan nan nan nan nan nan nan nan nan nan nan nan nan nan nan nan nan nan nan nan nan nan nan nan nan nan nan nan nan nan nan nan 42 40 43 46 45 47 43 50 43 39 44
nan nan nan nan nan nan nan nan nan nan nan nan nan nan nan nan nan nan nan nan nan nan nan nan nan nan nan nan nan nan nan nan 40 45 46 49 49 47 50 44 48 40 45
nan nan nan nan nan nan nan nan nan nan nan nan nan nan nan nan nan nan nan nan nan nan nan nan nan nan nan nan nan nan nan nan nan 49 50 42 37 51 51 46 44 38 42
nan nan nan nan nan nan nan nan nan nan nan nan nan nan nan nan nan nan nan nan nan nan nan nan nan nan nan nan nan nan nan nan nan nan 39 36 32 40 49 45 43 39 37
nan nan nan nan nan nan nan nan nan nan nan nan nan nan nan nan nan nan nan nan nan nan nan nan nan nan nan nan nan nan nan nan nan nan nan 36 38 37 42 49 44 40 39
nan nan nan nan nan nan nan nan nan nan nan nan nan nan nan nan nan nan nan nan nan nan nan nan nan nan nan nan nan nan nan nan nan nan nan nan nan 34 38 46 47 43 39
nan nan nan nan nan nan nan nan nan nan nan nan nan nan nan nan nan nan nan nan nan nan nan nan nan nan nan nan nan nan nan nan nan nan nan nan nan 30 38 38 45 48 43
Wind_Direction
284 287 290 297 299 301 302 304 304 302 298 307 319 326 332 339 344 344 344 343 347 349 350 349 353 350 347 340 343 326 308 299 287 302 299 299 296 285 287 292 297 293 284
290 294 290 295 301 303 301 299 296 299 295 292 297 305 312 325 335 335 335 338 341 345 348 348 349 346 344 340 333 322 317 309 306 309 307 318 310 296 290 291 284 284 286
284 292 294 291 290 294 298 296 293 294 294 292 291 294 298 313 324 330 331 334 334 338 341 338 344 343 342 342 338 336 328 315 317 318 321 329 313 303 295 293 291 291 292
287 290 288 288 287 284 283 285 286 289 289 289 294 294 295 306 316 320 325 328 329 331 335 338 340 340 337 337 340 342 339 325 319 319 330 321 323 304 296 298 303 297 293
281 283 281 281 283 279 276 276 278 277 277 277 278 283 294 306 315 320 318 325 322 324 329 336 337 339 332 325 333 341 345 337 327 326 339 313 296 305 304 308 307 299 287
283 282 277 279 279 272 269 268 266 269 271 269 266 267 272 286 308 320 319 320 318 321 320 322 322 325 330 329 325 338 345 337 327 333 322 311 293 305 307 319 305 299 292
281 282 282 277 277 272 267 261 259 260 261 259 258 262 269 279 286 290 298 310 314 317 322 317 312 314 318 319 325 331 339 337 338 324 322 310 295 304 307 311 302 304 300
280 278 282 281 276 275 271 263 257 255 255 257 257 257 263 281 292 288 283 283 304 313 315 314 316 315 318 322 319 324 332 335 338 332 313 303 302 304 307 308 304 307 303
nan nan nan nan nan nan nan nan nan nan 259 263 266 262 265 277 291 294 297 302 300 310 319 324 322 320 320 320 319 322 322 328 332 311 317 305 306 306 311 309 304 310 310
nan nan nan nan nan nan nan nan nan nan nan nan nan nan 261 286 301 307 316 286 273 289 310 327 329 331 332 326 324 320 319 319 330 330 303 294 306 306 311 313 311 311 308
nan nan nan nan nan nan nan nan nan nan nan nan nan nan nan nan nan nan nan 269 284 309 318 321 323 322 324 328 333 329 321 316 319 315 304 301 305 308 308 312 311 313 313
nan nan nan nan nan nan nan nan nan nan nan nan nan nan nan nan nan nan nan nan nan 7 2 3 352 342 329 326 324 328 321 322 319 310 300 304 304 305 308 310 313 313 317
nan nan nan nan nan nan nan nan nan nan nan nan nan nan nan nan nan nan nan nan nan nan 346 341 344 353 357 351 348 331 327 320 317 312 308 307 303 306 308 309 311 313 311
nan nan nan nan nan nan nan nan nan nan nan nan nan nan nan nan nan nan nan nan nan nan nan nan 317 314 315 302 328 323 328 329 315 309 303 308 304 301 305 307 311 310 305
nan nan nan nan nan nan nan nan nan nan nan nan nan nan nan nan nan nan nan nan nan nan nan nan nan nan 317 317 308 312 320 319 315 321 303 306 305 303 300 307 303 308 301
nan nan nan nan nan nan nan nan nan nan nan nan nan nan nan nan nan nan nan nan nan nan nan nan nan nan nan 311 312 308 300 317 319 316 313 301 306 303 301 296 299 303 303
nan nan nan nan nan nan nan nan nan nan nan nan nan nan nan nan nan nan nan nan nan nan nan nan nan nan nan nan nan 308 300 302 308 317 308 300 298 301 301 298 293 297 303
nan nan nan nan nan nan nan nan nan nan nan nan nan nan nan nan nan nan nan nan nan nan nan nan nan nan nan nan nan nan 302 299 298 292 305 299 288 286 291 299 295 293 302
nan nan nan nan nan nan nan nan nan nan nan nan nan nan nan nan nan nan nan nan nan nan nan nan nan nan nan nan nan nan nan 303 301 295 299 291 284 276 277 289 290 291 297
nan nan nan nan nan nan nan nan nan nan nan nan nan nan nan nan nan nan nan nan nan nan nan nan nan nan nan nan nan nan nan nan 296 292 291 277 273 274 271 274 275 273 288
nan nan nan nan nan nan nan nan nan nan nan nan nan nan nan nan nan nan nan nan nan nan nan nan nan nan nan nan nan nan nan nan 300 299 292 286 265 266 269 264 267 262 269
nan nan nan nan nan nan nan nan nan nan nan nan nan nan nan nan nan nan nan nan nan nan nan nan nan nan nan nan nan nan nan nan nan 307 305 289 280 255 259 262 266 260 260
nan nan nan nan nan nan nan nan nan nan nan nan nan nan nan nan nan nan nan nan nan nan nan nan nan nan nan nan nan nan nan nan nan nan 281 271 271 262 247 249 254 258 256
nan nan nan nan nan nan nan nan nan nan nan nan nan nan nan nan nan nan nan nan nan nan nan nan nan nan nan nan nan nan nan nan nan nan nan 253 250 257 240 237 242 250 260
nan nan nan nan nan nan nan nan nan nan nan nan nan nan nan nan nan nan nan nan nan nan nan nan nan nan nan nan nan nan nan nan nan nan nan nan nan 257 254 237 238 239 245
nan nan nan nan nan nan nan nan nan nan nan nan nan nan nan nan nan nan nan nan nan nan nan nan nan nan nan nan nan nan nan nan nan nan nan nan nan 259 251 241 239 241 239